Location: Hurecourt
(47.9030°N, 6.0653°E)
Time: 10:49:29
(UTC+00:00)

COSMOS 2406 - Pass Details

Date: 14 July 2020
Orbit: 844 x 863 km, 71.0° (Epoch: 05 August)

Event Time Altitude Azimuth Distance (km) Brightness Sun altitude
Exits shadow 02:31:40 11° 244° (WSW) 2,419 5.0 -10.7°
Maximum altitude 02:36:43 36° 309° (NW) 1,336 4.2 -10.2°
Drops below altitude 10° 02:42:01 10° 15° (NNE) 2,510 6.8 -9.6°
Sets 02:44:42 0° 24° (NNE) 3,448 8.0 -9.3°
